Showing default

MOMENTUS-X1, 44408

Orbit data source: Space-Track

MOMENTUS-X1, 44408 is a payload satellite owned by Momentus (US) in SSO that was launched on Fri, 05 Jul 2019 UTC via a SOYUZ-2-1B launch vehicle from the Vostochny Cosmodrome (VOSTO). Payload-class satellites include a variety of spacecraft equipped with specific instruments for various scientific and technological missions. These include communications satellites like Starlink; space stations such as the ISS; scientific satellites like the Hubble; Earth observation satellites from companies like Planet Labs, Umbra, and HawkEye 360; GPS; miniature CubeSats for education and research; and military/defense satellites.

Loading next visibility...
Identifier
44408, 2019-038Y
Orbit
SSO
Country
Flag of USUS
Related business
Manufacturer
Astro Digital
Mission
Operational Commercial Technology
Bus & Motor
CUBESAT 16U, Unknown motor
Mass
~20 kg wet, ~20 kg dry
Launch date (UTC)
2019-07-05 (7 years ago)
Launch vehicle
SOYUZ-2-1B
Launch site
Vostochny Cosmodrome (VOSTO)
Object type
Payload
Rocket body
Debris
Shape & HBR
Box, 0.2 m
Radar Cross Section
0.160 m², Medium (>0.1 m² and < 1m²)

Expand to show TLE details & history
Last TLE update: 20 hours ago

TLE from 20 hours ago
0 MOMENTUS-X1
1 44408U 19038Y   26170.73144708  .00041351  00000-0  39162-3 0  9999
2 44408  97.6740 216.3484 0006343  15.1729 344.9719 15.66829202386953
Epoch: 2026-06-19T17:33Z
TLE epoch observation values (Epoch: 2026-06-19T17:33:17.027Z)
Latitude
-0.00011°
Longitude
45.07126°
Altitude
366.995 km
Speed
7.692 km/s
True Right ascension
14h 25m 23s
True Declination
0° 00' 00"
Sunlit
Object was in full shadow at epoch
Visualization orbit readout
Latitude
Unknown
Longitude
Unknown
Altitude
Unknown
Speed
Unknown
Apparent Right ascension
Unknown
Apparent Declination
Unknown
Sunlit
N/A
Visualization observer readout
Local Sidereal Time
00:23:24
Azimuth
Unknown
Elevation
Unknown
Doppler factor
Unknown
Orbital elements
Apogee altitude
369.176 km
Perigee altitude
360.622 km
Semi-major axis
6,743.036 km
Eccentricity
0.00063
Inclination
97.674°
RAAN
216.3484°
Arg. of periapsis
15.1729°
True anomaly
344.95304°
Mean anomaly
344.9719°
Eccentric anomaly
344.96247°
Mean motion
3.91976 °/min
Orbital period
91.84 mins
BSTAR
0.00039162
Loading maneuver chart data...
Computing Atmospheric mass density...
Loading historical data...
Loading historical data...
Loading historical data...
Loading historical data...
Loading historical data...
Loading historical data...
Loading historical data...

Documentation

Showing up to 5 results
|